DL1MMS-10 Weather Reports


Display with metric or nautical units.
time (UTC)temp
F
wind
direction
speed
MPH
gust
MPH
rain 1hr
in
rain 24hr
in
rain mn
in
humidity
%
barometer
mb
20260508155711 74 0 0.0 0.0 0.00 0.00 0.00 37 1015.6
20260508155211 76 0 0.0 0.0 0.00 0.00 0.00 36 1015.4
20260508154711 78 0 0.0 0.0 0.00 0.00 0.00 33 1015.4
20260508154211 81 0 0.0 0.0 0.00 0.00 0.00 31 1015.4
20260508153710 84 0 0.0 0.0 0.00 0.00 0.00 30 1015.4
20260508153210 83 0 0.0 0.0 0.00 0.00 0.00 33 1015.3
20260508152710 80 0 0.0 0.0 0.00 0.00 0.00 32 1015.3
20260508152209 83 0 0.0 0.0 0.00 0.00 0.00 30 1015.5
20260508151709 87 0 0.0 0.0 0.00 0.00 0.00 27 1015.4
20260508151209 90 0 0.0 0.0 0.00 0.00 0.00 27 1015.4
20260508150709 91 0 0.0 0.0 0.00 0.00 0.00 26 1015.4
20260508150208 93 0 0.0 0.0 0.00 0.00 0.00 26 1015.5
20260508145708 93 0 0.0 0.0 0.00 0.00 0.00 25 1015.5
20260508145208 92 0 0.0 0.0 0.00 0.00 0.00 27 1015.3
20260508144707 92 0 0.0 0.0 0.00 0.00 0.00 27 1015.4
20260508144207 91 0 0.0 0.0 0.00 0.00 0.00 28 1015.4
20260508143707 90 0 0.0 0.0 0.00 0.00 0.00 28 1015.5
20260508143207 90 0 0.0 0.0 0.00 0.00 0.00 28 1015.6
20260508142706 90 0 0.0 0.0 0.00 0.00 0.00 28 1015.7
20260508142206 90 0 0.0 0.0 0.00 0.00 0.00 28 1015.6
20260508141706 88 0 0.0 0.0 0.00 0.00 0.00 31 1015.6
20260508141205 85 0 0.0 0.0 0.00 0.00 0.00 34 1015.6
20260508140705 81 0 0.0 0.0 0.00 0.00 0.00 35 1015.7
20260508140205 80 0 0.0 0.0 0.00 0.00 0.00 35 1015.8
20260508135705 81 0 0.0 0.0 0.00 0.00 0.00 35 1015.8
20260508135204 82 0 0.0 0.0 0.00 0.00 0.00 34 1015.8
20260508134704 83 0 0.0 0.0 0.00 0.00 0.00 33 1015.9
20260508134204 83 0 0.0 0.0 0.00 0.00 0.00 33 1016.0
20260508133704 86 0 0.0 0.0 0.00 0.00 0.00 32 1016.0
20260508133203 88 0 0.0 0.0 0.00 0.00 0.00 32 1016.0
20260508132703 88 0 0.0 0.0 0.00 0.00 0.00 32 1015.9
20260508132203 87 0 0.0 0.0 0.00 0.00 0.00 33 1015.7
20260508131702 85 0 0.0 0.0 0.00 0.00 0.00 34 1015.9
20260508131202 85 0 0.0 0.0 0.00 0.00 0.00 34 1015.9
20260508130702 85 0 0.0 0.0 0.00 0.00 0.00 34 1016.0
20260508130202 85 0 0.0 0.0 0.00 0.00 0.00 33 1016.1
20260508125701 86 0 0.0 0.0 0.00 0.00 0.00 34 1016.1
20260508125201 85 0 0.0 0.0 0.00 0.00 0.00 34 1016.2
20260508124701 85 0 0.0 0.0 0.00 0.00 0.00 34 1016.2
20260508124200 85 0 0.0 0.0 0.00 0.00 0.00 33 1016.1
20260508123700 86 0 0.0 0.0 0.00 0.00 0.00 35 1016.1
20260508123200 84 0 0.0 0.0 0.00 0.00 0.00 35 1016.2
20260508122700 83 0 0.0 0.0 0.00 0.00 0.00 35 1016.2
20260508122159 82 0 0.0 0.0 0.00 0.00 0.00 38 1016.1
20260508121659 79 0 0.0 0.0 0.00 0.00 0.00 39 1016.1
20260508121159 78 0 0.0 0.0 0.00 0.00 0.00 40 1016.2
20260508120658 76 0 0.0 0.0 0.00 0.00 0.00 39 1016.1
20260508120158 79 0 0.0 0.0 0.00 0.00 0.00 37 1016.2
20260508115658 84 0 0.0 0.0 0.00 0.00 0.00 34 1016.2
20260508115158 87 0 0.0 0.0 0.00 0.00 0.00 33 1016.2
20260508114657 87 0 0.0 0.0 0.00 0.00 0.00 34 1016.2
20260508114157 85 0 0.0 0.0 0.00 0.00 0.00 34 1016.3
20260508113657 87 0 0.0 0.0 0.00 0.00 0.00 34 1016.3
20260508113156 87 0 0.0 0.0 0.00 0.00 0.00 34 1016.2
20260508112656 86 0 0.0 0.0 0.00 0.00 0.00 34 1016.3
20260508112156 86 0 0.0 0.0 0.00 0.00 0.00 35 1016.3
20260508111656 85 0 0.0 0.0 0.00 0.00 0.00 36 1016.4
20260508111155 86 0 0.0 0.0 0.00 0.00 0.00 36 1016.4
20260508110655 84 0 0.0 0.0 0.00 0.00 0.00 37 1016.4
20260508110155 84 0 0.0 0.0 0.00 0.00 0.00 38 1016.5
20260508105654 85 0 0.0 0.0 0.00 0.00 0.00 37 1016.4
20260508105154 84 0 0.0 0.0 0.00 0.00 0.00 39 1016.5
20260508104654 82 0 0.0 0.0 0.00 0.00 0.00 41 1016.6
20260508104154 79 0 0.0 0.0 0.00 0.00 0.00 43 1016.6
20260508103653 76 0 0.0 0.0 0.00 0.00 0.00 45 1016.6
20260508103153 77 0 0.0 0.0 0.00 0.00 0.00 45 1016.7
20260508102653 78 0 0.0 0.0 0.00 0.00 0.00 45 1016.7
20260508102152 76 0 0.0 0.0 0.00 0.00 0.00 48 1016.7
20260508101652 73 0 0.0 0.0 0.00 0.00 0.00 52 1016.7
20260508101152 68 0 0.0 0.0 0.00 0.00 0.00 57 1016.7
20260508100652 66 0 0.0 0.0 0.00 0.00 0.00 60 1016.7
20260508100151 64 0 0.0 0.0 0.00 0.00 0.00 62 1016.7
20260508095651 64 0 0.0 0.0 0.00 0.00 0.00 63 1016.8
20260508095151 64 0 0.0 0.0 0.00 0.00 0.00 63 1016.8
20260508094650 63 0 0.0 0.0 0.00 0.00 0.00 64 1016.9
20260508094150 62 0 0.0 0.0 0.00 0.00 0.00 65 1016.9
20260508093650 61 0 0.0 0.0 0.00 0.00 0.00 66 1016.9
20260508093150 61 0 0.0 0.0 0.00 0.00 0.00 67 1016.9
20260508092649 60 0 0.0 0.0 0.00 0.00 0.00 66 1016.9
20260508092149 60 0 0.0 0.0 0.00 0.00 0.00 67 1016.9
20260508091649 60 0 0.0 0.0 0.00 0.00 0.00 68 1017.0
20260508091148 59 0 0.0 0.0 0.00 0.00 0.00 69 1017.0
20260508090648 59 0 0.0 0.0 0.00 0.00 0.00 70 1017.0
20260508090148 58 0 0.0 0.0 0.00 0.00 0.00 68 1017.0
20260508085648 58 0 0.0 0.0 0.00 0.00 0.00 69 1017.0
20260508085147 57 0 0.0 0.0 0.00 0.00 0.00 69 1017.1
20260508084647 57 0 0.0 0.0 0.00 0.00 0.00 70 1016.9
20260508084147 57 0 0.0 0.0 0.00 0.00 0.00 70 1016.9
20260508083647 57 0 0.0 0.0 0.00 0.00 0.00 71 1016.9
20260508083146 57 0 0.0 0.0 0.00 0.00 0.00 71 1016.9
20260508082646 57 0 0.0 0.0 0.00 0.00 0.00 71 1016.8
20260508082146 57 0 0.0 0.0 0.00 0.00 0.00 71 1016.7
20260508081645 57 0 0.0 0.0 0.00 0.00 0.00 71 1016.6
20260508081145 57 0 0.0 0.0 0.00 0.00 0.00 71 1016.7
20260508080645 57 0 0.0 0.0 0.00 0.00 0.00 72 1016.8
20260508080145 56 0 0.0 0.0 0.00 0.00 0.00 73 1016.8
20260508075644 56 0 0.0 0.0 0.00 0.00 0.00 73 1016.8
20260508075144 55 0 0.0 0.0 0.00 0.00 0.00 73 1016.8
20260508074644 55 0 0.0 0.0 0.00 0.00 0.00 74 1016.9
20260508074143 55 0 0.0 0.0 0.00 0.00 0.00 75 1016.8
20260508073643 55 0 0.0 0.0 0.00 0.00 0.00 74 1016.8
20260508073143 55 0 0.0 0.0 0.00 0.00 0.00 74 1016.9
20260508072643 55 0 0.0 0.0 0.00 0.00 0.00 74 1016.9
20260508072142 55 0 0.0 0.0 0.00 0.00 0.00 75 1016.9
20260508071642 55 0 0.0 0.0 0.00 0.00 0.00 75 1016.9
20260508071142 55 0 0.0 0.0 0.00 0.00 0.00 76 1016.8
20260508070641 54 0 0.0 0.0 0.00 0.00 0.00 77 1016.6
20260508070141 54 0 0.0 0.0 0.00 0.00 0.00 78 1016.7
20260508065641 53 0 0.0 0.0 0.00 0.00 0.00 79 1016.7
20260508065141 53 0 0.0 0.0 0.00 0.00 0.00 79 1016.7
20260508064640 53 0 0.0 0.0 0.00 0.00 0.00 79 1016.6
20260508064140 52 0 0.0 0.0 0.00 0.00 0.00 80 1016.7
20260508063640 52 0 0.0 0.0 0.00 0.00 0.00 81 1016.8
20260508063139 52 0 0.0 0.0 0.00 0.00 0.00 81 1016.7
20260508062639 51 0 0.0 0.0 0.00 0.00 0.00 81 1016.6
20260508062139 51 0 0.0 0.0 0.00 0.00 0.00 82 1016.5
20260508061639 51 0 0.0 0.0 0.00 0.00 0.00 82 1016.6
20260508061138 51 0 0.0 0.0 0.00 0.00 0.00 83 1016.6
20260508060638 51 0 0.0 0.0 0.00 0.00 0.00 83 1016.5
20260508060138 51 0 0.0 0.0 0.00 0.00 0.00 83 1016.5
20260508055637 50 0 0.0 0.0 0.00 0.00 0.00 83 1016.5
20260508055137 50 0 0.0 0.0 0.00 0.00 0.00 83 1016.6
20260508054637 50 0 0.0 0.0 0.00 0.00 0.00 84 1016.5
20260508054137 50 0 0.0 0.0 0.00 0.00 0.00 84 1016.4
20260508053636 49 0 0.0 0.0 0.00 0.00 0.00 84 1016.5
20260508053136 49 0 0.0 0.0 0.00 0.00 0.00 84 1016.4
20260508052636 49 0 0.0 0.0 0.00 0.00 0.00 84 1016.5
20260508052135 49 0 0.0 0.0 0.00 0.00 0.00 84 1016.4
20260508051635 49 0 0.0 0.0 0.00 0.00 0.00 84 1016.4
20260508051135 49 0 0.0 0.0 0.00 0.00 0.00 84 1016.3
20260508050635 49 0 0.0 0.0 0.00 0.00 0.00 84 1016.3
20260508050134 48 0 0.0 0.0 0.00 0.00 0.00 84 1016.2
20260508045634 48 0 0.0 0.0 0.00 0.00 0.00 84 1016.2
20260508045134 48 0 0.0 0.0 0.00 0.00 0.00 84 1016.1
20260508044633 48 0 0.0 0.0 0.00 0.00 0.00 84 1016.2
20260508044133 48 0 0.0 0.0 0.00 0.00 0.00 84 1016.1
20260508043633 48 0 0.0 0.0 0.00 0.00 0.00 84 1016.0
20260508043133 48 0 0.0 0.0 0.00 0.00 0.00 84 1016.0
20260508042632 48 0 0.0 0.0 0.00 0.00 0.00 85 1016.0
20260508042132 48 0 0.0 0.0 0.00 0.00 0.00 85 1015.9
20260508041632 48 0 0.0 0.0 0.00 0.00 0.00 85 1015.8
20260508041132 47 0 0.0 0.0 0.00 0.00 0.00 85 1015.8
20260508040631 47 0 0.0 0.0 0.00 0.00 0.00 85 1015.8
20260508040131 47 0 0.0 0.0 0.00 0.00 0.00 85 1015.9
20260508035631 47 0 0.0 0.0 0.00 0.00 0.00 85 1015.8
20260508035130 47 0 0.0 0.0 0.00 0.00 0.00 85 1015.8
20260508034630 47 0 0.0 0.0 0.00 0.00 0.00 85 1015.8
20260508034130 47 0 0.0 0.0 0.00 0.00 0.00 85 1015.8
20260508033630 47 0 0.0 0.0 0.00 0.00 0.00 85 1015.8
20260508033129 47 0 0.0 0.0 0.00 0.00 0.00 85 1015.8
20260508032629 47 0 0.0 0.0 0.00 0.00 0.00 85 1015.8
20260508032129 47 0 0.0 0.0 0.00 0.00 0.00 85 1015.8
20260508031628 46 0 0.0 0.0 0.00 0.00 0.00 85 1015.7
20260508031128 46 0 0.0 0.0 0.00 0.00 0.00 85 1015.8
20260508030628 46 0 0.0 0.0 0.00 0.00 0.00 85 1015.8
20260508030128 46 0 0.0 0.0 0.00 0.00 0.00 85 1015.7
20260508025627 46 0 0.0 0.0 0.00 0.00 0.00 85 1015.7
20260508025127 46 0 0.0 0.0 0.00 0.00 0.00 85 1015.6
20260508024627 46 0 0.0 0.0 0.00 0.00 0.00 85 1015.6
20260508024126 45 0 0.0 0.0 0.00 0.00 0.00 85 1015.7
20260508023626 45 0 0.0 0.0 0.00 0.00 0.00 85 1015.7
20260508023126 45 0 0.0 0.0 0.00 0.00 0.00 85 1015.7
20260508022626 45 0 0.0 0.0 0.00 0.00 0.00 85 1015.7
20260508022125 44 0 0.0 0.0 0.00 0.00 0.00 85 1015.7
20260508021625 44 0 0.0 0.0 0.00 0.00 0.00 85 1015.7
20260508021125 44 0 0.0 0.0 0.00 0.00 0.00 85 1015.7
20260508020624 44 0 0.0 0.0 0.00 0.00 0.00 85 1015.9
20260508020124 43 0 0.0 0.0 0.00 0.00 0.00 85 1015.9
20260508015624 43 0 0.0 0.0 0.00 0.00 0.00 85 1015.9
20260508015124 43 0 0.0 0.0 0.00 0.00 0.00 85 1016.0
20260508014623 42 0 0.0 0.0 0.00 0.00 0.00 85 1016.0
20260508014123 42 0 0.0 0.0 0.00 0.00 0.00 85 1016.0
20260508013623 42 0 0.0 0.0 0.00 0.00 0.00 85 1016.0
20260508013122 42 0 0.0 0.0 0.00 0.00 0.00 84 1016.0
20260508012622 42 0 0.0 0.0 0.00 0.00 0.00 84 1016.0
20260508012122 42 0 0.0 0.0 0.00 0.00 0.00 84 1016.0
20260508011622 42 0 0.0 0.0 0.00 0.00 0.00 84 1016.0
20260508011121 42 0 0.0 0.0 0.00 0.00 0.00 84 1015.9
20260508010621 42 0 0.0 0.0 0.00 0.00 0.00 84 1015.9
20260508010121 42 0 0.0 0.0 0.00 0.00 0.00 84 1015.9
20260508005620 42 0 0.0 0.0 0.00 0.00 0.00 84 1015.9
20260508005120 42 0 0.0 0.0 0.00 0.00 0.00 84 1016.1
20260508004620 42 0 0.0 0.0 0.00 0.00 0.00 83 1016.2
20260508004120 42 0 0.0 0.0 0.00 0.00 0.00 83 1016.3
20260508003619 42 0 0.0 0.0 0.00 0.00 0.00 83 1016.2
20260508003119 43 0 0.0 0.0 0.00 0.00 0.00 83 1016.2
20260508002619 43 0 0.0 0.0 0.00 0.00 0.00 83 1016.3
20260508002118 43 0 0.0 0.0 0.00 0.00 0.00 83 1016.3
20260508001618 43 0 0.0 0.0 0.00 0.00 0.00 83 1016.3
20260508001118 44 0 0.0 0.0 0.00 0.00 0.00 83 1016.2
20260508000618 44 0 0.0 0.0 0.00 0.00 0.00 83 1016.2
20260508000117 44 0 0.0 0.0 0.00 0.00 0.00 82 1016.2
20260507235617 44 0 0.0 0.0 0.00 0.00 0.00 82 1016.3
20260507235117 44 0 0.0 0.0 0.00 0.00 0.00 82 1016.4
20260507234617 44 0 0.0 0.0 0.00 0.00 0.00 82 1016.4
20260507234116 44 0 0.0 0.0 0.00 0.00 0.00 82 1016.5
20260507233616 44 0 0.0 0.0 0.00 0.00 0.00 81 1016.4
20260507233116 44 0 0.0 0.0 0.00 0.00 0.00 81 1016.5
20260507232615 45 0 0.0 0.0 0.00 0.00 0.00 80 1016.6
20260507232115 45 0 0.0 0.0 0.00 0.00 0.00 80 1016.7
20260507231615 46 0 0.0 0.0 0.00 0.00 0.00 80 1016.6
20260507231114 46 0 0.0 0.0 0.00 0.00 0.00 80 1016.6
20260507230614 46 0 0.0 0.0 0.00 0.00 0.00 80 1016.7
20260507230114 46 0 0.0 0.0 0.00 0.00 0.00 79 1016.8
20260507225614 46 0 0.0 0.0 0.00 0.00 0.00 79 1016.8
20260507225113 47 0 0.0 0.0 0.00 0.00 0.00 79 1016.7
20260507224613 47 0 0.0 0.0 0.00 0.00 0.00 79 1016.7
20260507224113 48 0 0.0 0.0 0.00 0.00 0.00 79 1016.7
20260507223612 48 0 0.0 0.0 0.00 0.00 0.00 79 1016.8
20260507223112 48 0 0.0 0.0 0.00 0.00 0.00 78 1016.8
20260507222612 48 0 0.0 0.0 0.00 0.00 0.00 78 1016.8
20260507222112 48 0 0.0 0.0 0.00 0.00 0.00 78 1016.8
20260507221611 48 0 0.0 0.0 0.00 0.00 0.00 78 1016.7
20260507221111 48 0 0.0 0.0 0.00 0.00 0.00 78 1016.7
20260507220611 49 0 0.0 0.0 0.00 0.00 0.00 78 1016.9
20260507220111 49 0 0.0 0.0 0.00 0.00 0.00 77 1016.8
20260507215610 49 0 0.0 0.0 0.00 0.00 0.00 77 1016.8
20260507215110 49 0 0.0 0.0 0.00 0.00 0.00 76 1016.9
20260507214610 50 0 0.0 0.0 0.00 0.00 0.00 76 1017.0
20260507214109 50 0 0.0 0.0 0.00 0.00 0.00 76 1017.0
20260507213609 50 0 0.0 0.0 0.00 0.00 0.00 77 1017.0
20260507213109 50 0 0.0 0.0 0.00 0.00 0.00 76 1016.9
20260507212609 50 0 0.0 0.0 0.00 0.00 0.00 77 1016.9
20260507212108 50 0 0.0 0.0 0.00 0.00 0.00 76 1016.8
20260507211608 50 0 0.0 0.0 0.00 0.00 0.00 76 1016.9
20260507211108 50 0 0.0 0.0 0.00 0.00 0.00 76 1017.1
20260507210608 50 0 0.0 0.0 0.00 0.00 0.00 76 1017.1
20260507210107 50 0 0.0 0.0 0.00 0.00 0.00 76 1017.0
20260507205607 50 0 0.0 0.0 0.00 0.00 0.00 75 1017.0
20260507205107 50 0 0.0 0.0 0.00 0.00 0.00 75 1017.1
20260507204606 50 0 0.0 0.0 0.00 0.00 0.00 75 1016.9
20260507204106 50 0 0.0 0.0 0.00 0.00 0.00 75 1016.9
20260507203606 50 0 0.0 0.0 0.00 0.00 0.00 75 1016.8
20260507203105 50 0 0.0 0.0 0.00 0.00 0.00 75 1016.9
20260507202605 51 0 0.0 0.0 0.00 0.00 0.00 75 1016.9
20260507202105 51 0 0.0 0.0 0.00 0.00 0.00 74 1017.0
20260507201605 51 0 0.0 0.0 0.00 0.00 0.00 74 1016.9
20260507201104 51 0 0.0 0.0 0.00 0.00 0.00 74 1016.8
20260507200604 52 0 0.0 0.0 0.00 0.00 0.00 73 1016.8
20260507200104 52 0 0.0 0.0 0.00 0.00 0.00 73 1016.8
20260507195603 52 0 0.0 0.0 0.00 0.00 0.00 73 1016.7
20260507195103 52 0 0.0 0.0 0.00 0.00 0.00 73 1016.7
20260507194603 52 0 0.0 0.0 0.00 0.00 0.00 73 1016.6
20260507194103 52 0 0.0 0.0 0.00 0.00 0.00 72 1016.6
20260507193602 52 0 0.0 0.0 0.00 0.00 0.00 71 1016.6
20260507193102 52 0 0.0 0.0 0.00 0.00 0.00 71 1016.4
20260507192602 53 0 0.0 0.0 0.00 0.00 0.00 70 1016.3
20260507192101 53 0 0.0 0.0 0.00 0.00 0.00 69 1016.2
20260507191601 53 0 0.0 0.0 0.00 0.00 0.00 69 1016.3
20260507191101 53 0 0.0 0.0 0.00 0.00 0.00 69 1016.3
20260507190601 53 0 0.0 0.0 0.00 0.00 0.00 69 1016.0
20260507190100 53 0 0.0 0.0 0.00 0.00 0.00 68 1016.0
20260507185600 53 0 0.0 0.0 0.00 0.00 0.00 68 1016.0
20260507185100 54 0 0.0 0.0 0.00 0.00 0.00 67 1016.0
20260507184559 54 0 0.0 0.0 0.00 0.00 0.00 66 1015.7
20260507184059 55 0 0.0 0.0 0.00 0.00 0.00 65 1015.9
20260507183559 55 0 0.0 0.0 0.00 0.00 0.00 63 1015.7
20260507183059 55 0 0.0 0.0 0.00 0.00 0.00 61 1015.6
20260507182558 56 0 0.0 0.0 0.00 0.00 0.00 59 1015.5
20260507182058 56 0 0.0 0.0 0.00 0.00 0.00 58 1015.5
20260507181558 57 0 0.0 0.0 0.00 0.00 0.00 58 1015.4
20260507181058 57 0 0.0 0.0 0.00 0.00 0.00 57 1015.5
20260507180558 58 0 0.0 0.0 0.00 0.00 0.00 57 1015.5
20260507180057 58 0 0.0 0.0 0.00 0.00 0.00 57 1015.2
20260507175557 59 0 0.0 0.0 0.00 0.00 0.00 57 1015.2
20260507175056 59 0 0.0 0.0 0.00 0.00 0.00 56 1015.3
20260507174556 59 0 0.0 0.0 0.00 0.00 0.00 56 1015.2
20260507174056 60 0 0.0 0.0 0.00 0.00 0.00 55 1015.2
20260507173556 60 0 0.0 0.0 0.00 0.00 0.00 55 1015.1
20260507173055 60 0 0.0 0.0 0.00 0.00 0.00 54 1015.0
20260507172555 61 0 0.0 0.0 0.00 0.00 0.00 53 1015.2
20260507172055 62 0 0.0 0.0 0.00 0.00 0.00 52 1015.1
20260507171554 63 0 0.0 0.0 0.00 0.00 0.00 51 1015.1
20260507171054 64 0 0.0 0.0 0.00 0.00 0.00 49 1015.1
20260507170554 65 0 0.0 0.0 0.00 0.00 0.00 47 1015.1
20260507170054 66 0 0.0 0.0 0.00 0.00 0.00 45 1015.0
20260507165553 68 0 0.0 0.0 0.00 0.00 0.00 43 1015.0
20260507165053 69 0 0.0 0.0 0.00 0.00 0.00 41 1015.0
20260507164553 72 0 0.0 0.0 0.00 0.00 0.00 40 1015.0
20260507164052 73 0 0.0 0.0 0.00 0.00 0.00 41 1015.0
20260507163552 72 0 0.0 0.0 0.00 0.00 0.00 43 1015.0
20260507163052 69 0 0.0 0.0 0.00 0.00 0.00 43 1014.9
20260507162552 71 0 0.0 0.0 0.00 0.00 0.00 40 1014.9
20260507162051 74 0 0.0 0.0 0.00 0.00 0.00 38 1014.8
20260507161551 79 0 0.0 0.0 0.00 0.00 0.00 34 1014.8
20260507161051 83 0 0.0 0.0 0.00 0.00 0.00 31 1014.7
20260507160550 85 0 0.0 0.0 0.00 0.00 0.00 32 1014.7
20260507160050 85 0 0.0 0.0 0.00 0.00 0.00 32 1014.8